SKYNET 4C

Last updated on Thu Oct 16 2025 00:02:44 GMT+0000 (Coordinated Universal Time)

1 20776U 90079A 25287.84984097 .00000116 00000+0 00000+0 0 9996 2 20776 13.4202 351.4791 0003512 227.5447 143.8859 1.00273461128438
UTC large
Height (km)
Speed (km/s)
/
Latitude / Longitude
Inclination (degrees)
Orbital Period (minutes)
Azimuth
Elevation
Range (km)
Doppler Factor

Next 0 passes for location: London (51.5072 / 0.1276)

Sorry there are no passes over London.